SHIYAN 10-02 (SY-10 02) (54878 NORAD) Tracking and Keplerian Element Data

This shows tracking and keplerian element data for the satellite.

Feedback or suggestion? Click here.




ElementValue
Catalog54878
NameSHIYAN 10-02 (SY-10 02)
Epoch Orbit175
Epoch Day84.28646862
Epoch Year2023
RAAN105.2792
Inclination63.3415
Eccentricity0.6946298
Argument of Perigee269.1894
Mean Anonmoly17.6436
Mean Motion2.00613974
Decay Rate9.32E-06
L11 54878U 22178A 23084.28646862 .00000932 00000+0 10000-3 0 9998
L22 54878 63.3415 105.2792 6946298 269.1894 17.6436 2.00613974 1757



Live tracking and technical data element details for SHIYAN 10-02 (SY-10 02) (NORAD 54878). SHIYAN 10-02 (SY-10 02) can be tracked NOW for your location showing map with azimuth and elevation plus other details from your city location.







IsCatalogInMostPopularTable: catalog: 54878, numindb: 11
Update: records affected: 1



GetName: 54878 SHIYAN 10-02 (SY-10 02)

Hit Count: updated at: Mon, 27 Mar 2023 07:20:48 GMT